Content
SEND FEEDBACK

Daily
Averages
Monthly
Summary
China

TIANJIN, CHINA


Home > Asia > China
Elevation: 16 feet     Latitude: 39 06N     Longitude: 117 10E

WEATHER
 
SELECT A DAY
Number of Records: 201,401;   Date Range: 7/1/96 - 7/28/14
 
SHARE

PRINT THIS DATA

[ ← Previous Day ]
WEATHER ALMANAC - JANUARY 31, 2013
[ Next Day → ]
[ °C ]   °F
Weather ElementAverageHighLow
Temperature31.3 °F32 °F (9:00 am)30.2 °F (12:30 am)
Dewpoint30.6 °F32 °F (12:00 pm)28.4 °F (12:30 am)
Humidity97 %100 % (2:00 am)93 % (12:30 am)
Barometer30.23 in30.30 in (12:30 am)30.15 in (4:30 pm)
Wind Speed4.7 mph8.9 mph (7:00 pm)
Weather ElementAverage
Visibility0.1 mi
Wind DirectionSSE (142.3 °)

Weather ElementTotal
Precipitation---
Heating Degree Days33.9 (Base 65)
Averaged from 47 records on January 31, 2013
WEATHER CONDITIONS BREAKOUT
WIND DIRECTION BREAKOUT
WEATHER BY HOUR - JANUARY 31, 2013
[ °C ]   °F
Local TimeTemperatureDewpointHumidityBarometerVisibilityWind DirectionWind SpeedGust SpeedPrecipitationEventsConditions
12:30 AM30.2 °F28.4 °F93 %30.30 in0.0 miENE (70°)2.2 mphFogLight Freezing Fog
1:00 AM30.2 °F28.4 °F93 %30.30 in0.0 miENE (70°)2.2 mphFogLight Freezing Fog
1:30 AM30.2 °F28.4 °F93 %30.30 in0.0 miCalmFogLight Freezing Fog
2:00 AM30.2 °F30.2 °F100 %30.30 in0.0 miESE (120°)2.2 mphFog-SnowLight Snow Grains
2:30 AM30.2 °F28.4 °F93 %30.30 in0.0 miNE (40°)2.2 mphFog-SnowLight Snow Grains
3:00 AM30.2 °F28.4 °F93 %30.30 in0.0 miNNE (30°)2.2 mphFog-SnowLight Snow Grains
3:30 AM30.2 °F28.4 °F93 %30.27 in0.0 miSE (130°)2.2 mphFog-SnowLight Snow Grains
4:00 AM30.2 °F28.4 °F93 %30.27 in0.0 miEast (100°)4.5 mphFog-SnowLight Snow Grains
4:30 AM30.2 °F28.4 °F93 %30.27 in0.1 miESE (110°)4.5 mphFog-SnowLight Snow Grains
5:00 AM30.2 °F30.2 °F100 %30.24 in0.1 miEast (100°)2.2 mphFog-SnowLight Snow Grains
5:30 AM30.2 °F30.2 °F100 %30.24 in0.1 miSSE (150°)4.5 mphFog-SnowLight Snow Grains
6:00 AM30.2 °F30.2 °F100 %30.27 in0.1 miSouth (170°)4.5 mphFog-SnowLight Snow Grains
6:30 AM30.2 °F30.2 °F100 %30.27 in0.1 miSSE (160°)4.5 mphFog-SnowLight Snow Grains
7:00 AM30.2 °F30.2 °F100 %30.27 in0.1 miSSE (150°)4.5 mphFog-SnowLight Snow Grains
7:30 AM30.2 °F30.2 °F100 %30.27 in0.1 miCalmFogLight Freezing Fog
8:00 AM30.2 °F30.2 °F100 %30.27 in0.1 miNorth (10°)2.2 mphFogLight Freezing Fog
8:30 AM30.2 °F30.2 °F100 %30.27 in0.1 miEast (90°)4.5 mphFogLight Freezing Drizzle
9:00 AM32.0 °F30.2 °F93 %30.27 in0.1 miNE (40°)2.2 mphFogLight Freezing Drizzle
9:30 AM32.0 °F30.2 °F93 %30.27 in0.0 miNNE (30°)4.5 mphFogLight Freezing Drizzle
10:00 AM32.0 °F30.2 °F93 %30.27 in0.0 miNNE (20°)4.5 mphFogLight Freezing Drizzle
10:30 AM32.0 °F30.2 °F93 %30.27 in0.1 miENE (60°)4.5 mphFogLight Drizzle
11:00 AM32.0 °F30.2 °F93 %30.27 in0.1 miNE (40°)6.7 mphFogLight Freezing Fog
11:30 AM32.0 °F30.2 °F93 %30.27 in0.1 miNE (40°)2.2 mphFogLight Freezing Fog
12:00 PM32.0 °F32.0 °F100 %30.27 in0.1 miCalmFogLight Drizzle
12:30 PM32.0 °F32.0 °F100 %30.24 in0.2 miEast (80°)4.5 mphFogLight Drizzle
1:00 PM32.0 °F32.0 °F100 %30.21 in0.2 miEast (80°)6.7 mphFogLight Drizzle
1:30 PM32.0 °F32.0 °F100 %30.18 in0.3 miENE (70°)6.7 mphFogLight Drizzle
2:00 PM32.0 °F32.0 °F100 %30.18 in0.4 miEast (90°)6.7 mphFogFog
2:30 PM32.0 °F32.0 °F100 %30.18 in0.4 miEast (80°)4.5 mphFogFog
3:00 PM32.0 °F32.0 °F100 %30.18 in0.4 miEast (80°)4.5 mphFogFog
3:30 PM32.0 °F32.0 °F100 %30.18 in0.4 miEast (90°)4.5 mphFogFog
4:00 PM32.0 °F32.0 °F100 %30.18 in0.3 miEast (100°)4.5 mphFogFog
4:30 PM32.0 °F32.0 °F100 %30.15 in0.3 miEast (80°)4.5 mphFogFog
5:00 PM32.0 °F32.0 °F100 %30.15 in0.3 miEast (80°)4.5 mphFogFog
5:30 PM32.0 °F32.0 °F100 %30.15 in0.3 miNorth (350°)2.2 mphFogFog
6:00 PM32.0 °F32.0 °F100 %30.15 in0.3 miENE (70°)2.2 mphFogFog
6:30 PM32.0 °F32.0 °F100 %30.15 in0.2 miNNW (330°)4.5 mphFogFog
7:00 PM32.0 °F32.0 °F100 %30.15 in0.1 miNorth (350°)8.9 mphFogFog
7:30 PM32.0 °F30.2 °F93 %30.15 in0.0 miNNW (340°)6.7 mphFogLight Freezing Fog
8:00 PM32.0 °F30.2 °F93 %30.15 in0.0 miNorth (350°)8.9 mphFogLight Freezing Fog
8:30 PM32.0 °F30.2 °F93 %30.18 in0.0 miNNW (340°)8.9 mphFogLight Freezing Fog
9:00 PM32.0 °F30.2 °F93 %30.18 in0.0 miNNW (340°)8.9 mphFogLight Freezing Fog
9:30 PM32.0 °F30.2 °F93 %30.18 in0.0 miNNW (340°)8.9 mphFogLight Drizzle
10:00 PM32.0 °F30.2 °F93 %30.18 in0.0 miNNW (330°)8.9 mphFogLight Drizzle
10:30 PM32.0 °F32.0 °F100 %30.18 in0.1 miNNW (330°)6.7 mphFogLight Freezing Fog
11:00 PM32.0 °F32.0 °F100 %30.18 in0.1 miNNW (340°)8.9 mphFogLight Drizzle
11:30 PM32.0 °F32.0 °F100 %30.18 in0.2 miNW (320°)8.9 mphFogLight Drizzle
Hourly data recorded from ZBTJ, located miles away from Tianjin, China







STORIES FROM OUR PARTNERS